contact:dominique.lefevre@mio.osupytheas.fr, maurice.libes@osupytheas.fr, didier.mallarino@osupytheas.fr
Project:EMSO http://www.emso-fr.org/EMSO-France
Depth: 2436.0 m
Title:EMSO Ligure Ouest : Data MII capteur MICROCAT
DateTime_Computer,Latitude,Longitude,Temperature,Conductivity,Pressure,DateTime_Instrument
DateTime_Computer,Latitude,Longitude,degC,S m-1,dbar,DateTime_Instrument
2021-09-10T00:00:57Z,42.805,6.029,13.3009,4.60041,2470.46,2021-9-10T02:02:18Z
2021-09-10T00:04:00Z,42.805,6.029,13.3004,4.60044,2470.474,2021-9-10T02:05:21Z
2021-09-10T00:07:03Z,42.805,6.029,13.3004,4.60069,2470.413,2021-9-10T02:08:24Z
2021-09-10T00:10:07Z,42.805,6.029,13.3004,4.60060,2470.474,2021-9-10T02:11:27Z
2021-09-10T00:13:10Z,42.805,6.029,13.3009,4.60042,2470.488,2021-9-10T02:14:30Z
2021-09-10T00:16:13Z,42.805,6.029,13.3006,4.60059,2470.437,2021-9-10T02:17:33Z
2021-09-10T00:19:16Z,42.805,6.029,13.3004,4.60050,2470.474,2021-9-10T02:20:37Z
2021-09-10T00:22:19Z,42.805,6.029,13.3009,4.60052,2470.474,2021-9-10T02:23:40Z
2021-09-10T00:25:22Z,42.805,6.029,13.3011,4.60068,2470.45,2021-9-10T02:26:43Z
2021-09-10T00:28:25Z,42.805,6.029,13.2998,4.60050,2470.46,2021-9-10T02:29:46Z
2021-09-10T00:31:28Z,42.805,6.029,13.3001,4.60072,2470.437,2021-9-10T02:32:49Z
2021-09-10T00:34:32Z,42.805,6.029,13.3000,4.60066,2470.45,2021-9-10T02:35:52Z
2021-09-10T00:37:35Z,42.805,6.029,13.3010,4.60057,2470.46,2021-9-10T02:38:55Z
2021-09-10T00:40:38Z,42.805,6.029,13.3006,4.60057,2470.45,2021-9-10T02:41:58Z
2021-09-10T00:43:41Z,42.805,6.029,13.3005,4.60056,2470.497,2021-9-10T02:45:02Z
2021-09-10T00:46:44Z,42.805,6.029,13.3015,4.60076,2470.437,2021-9-10T02:48:05Z
2021-09-10T00:49:47Z,42.805,6.029,13.3007,4.60072,2470.427,2021-9-10T02:51:08Z
2021-09-10T00:52:50Z,42.805,6.029,13.3024,4.60090,2470.474,2021-9-10T02:54:11Z
2021-09-10T00:55:53Z,42.805,6.029,13.3004,4.60044,2470.413,2021-9-10T02:57:14Z
2021-09-10T00:58:57Z,42.805,6.029,13.3000,4.60059,2470.427,2021-9-10T03:00:17Z
2021-09-10T01:02:00Z,42.805,6.029,13.2998,4.60078,2470.413,2021-9-10T03:03:20Z
2021-09-10T01:05:03Z,42.805,6.029,13.3015,4.60092,2470.427,2021-9-10T03:06:23Z
2021-09-10T01:08:06Z,42.805,6.029,13.3002,4.60097,2470.404,2021-9-10T03:09:26Z
2021-09-10T01:11:09Z,42.805,6.029,13.3024,4.60107,2470.413,2021-9-10T03:12:30Z
2021-09-10T01:14:12Z,42.805,6.029,13.3011,4.60082,2470.39,2021-9-10T03:15:33Z
2021-09-10T01:17:15Z,42.805,6.029,13.3009,4.60089,2470.39,2021-9-10T03:18:36Z
2021-09-10T01:20:18Z,42.805,6.029,13.3000,4.60079,2470.404,2021-9-10T03:21:39Z
2021-09-10T01:23:22Z,42.805,6.029,13.3014,4.60068,2470.366,2021-9-10T03:24:42Z
2021-09-10T01:26:25Z,42.805,6.029,13.3012,4.60082,2470.38,2021-9-10T03:27:45Z
2021-09-10T01:29:28Z,42.805,6.029,13.3007,4.60073,2470.366,2021-9-10T03:30:48Z
2021-09-10T01:32:31Z,42.805,6.029,13.3006,4.60074,2470.39,2021-9-10T03:33:51Z
2021-09-10T01:35:34Z,42.805,6.029,13.3031,4.60107,2470.413,2021-9-10T03:36:55Z
2021-09-10T01:38:37Z,42.805,6.029,13.3018,4.60066,2470.404,2021-9-10T03:39:58Z
2021-09-10T01:41:40Z,42.805,6.029,13.3021,4.60081,2470.404,2021-9-10T03:43:01Z
2021-09-10T01:44:43Z,42.805,6.029,13.3008,4.60102,2470.366,2021-9-10T03:46:04Z
2021-09-10T01:47:46Z,42.805,6.029,13.3021,4.60084,2470.353,2021-9-10T03:49:07Z
2021-09-10T01:50:50Z,42.805,6.029,13.3017,4.60098,2470.39,2021-9-10T03:52:10Z
2021-09-10T01:53:53Z,42.805,6.029,13.3035,4.60102,2470.39,2021-9-10T03:55:13Z
2021-09-10T01:56:56Z,42.805,6.029,13.3023,4.60097,2470.343,2021-9-10T03:58:16Z
2021-09-10T01:59:59Z,42.805,6.029,13.3021,4.60098,2470.39,2021-9-10T04:01:20Z
2021-09-10T02:03:02Z,42.805,6.029,13.3019,4.60092,2470.366,2021-9-10T04:04:23Z
2021-09-10T02:06:05Z,42.805,6.029,13.3021,4.60088,2470.357,2021-9-10T04:07:26Z
2021-09-10T02:09:08Z,42.805,6.029,13.3015,4.60089,2470.38,2021-9-10T04:10:29Z
2021-09-10T02:12:11Z,42.805,6.029,13.3019,4.60117,2470.357,2021-9-10T04:13:32Z
2021-09-10T02:15:15Z,42.805,6.029,13.3015,4.60075,2470.38,2021-9-10T04:16:35Z
2021-09-10T02:18:18Z,42.805,6.029,13.3007,4.60097,2470.357,2021-9-10T04:19:38Z
2021-09-10T02:21:21Z,42.805,6.029,13.3041,4.60047,2470.343,2021-9-10T04:22:41Z
2021-09-10T02:24:24Z,42.805,6.029,13.3039,4.60072,2470.32,2021-9-10T04:25:45Z
2021-09-10T02:27:27Z,42.805,6.029,13.3050,4.60055,2470.366,2021-9-10T04:28:48Z
2021-09-10T02:30:30Z,42.805,6.029,13.3043,4.60026,2470.343,2021-9-10T04:31:51Z
2021-09-10T02:33:33Z,42.805,6.029,13.3015,4.60037,2470.343,2021-9-10T04:34:54Z
2021-09-10T02:36:36Z,42.805,6.029,13.3039,4.60061,2470.357,2021-9-10T04:37:57Z
2021-09-10T02:39:40Z,42.805,6.029,13.3014,4.60023,2470.343,2021-9-10T04:41:00Z
2021-09-10T02:42:43Z,42.805,6.029,13.3022,4.60028,2470.343,2021-9-10T04:44:03Z
2021-09-10T02:45:46Z,42.805,6.029,13.2996,4.60021,2470.32,2021-9-10T04:47:06Z
2021-09-10T02:48:49Z,42.805,6.029,13.3007,4.60047,2470.343,2021-9-10T04:50:10Z
2021-09-10T02:51:52Z,42.805,6.029,13.3038,4.60039,2470.32,2021-9-10T04:53:13Z
2021-09-10T02:54:55Z,42.805,6.029,13.3033,4.60049,2470.32,2021-9-10T04:56:16Z
2021-09-10T02:57:58Z,42.805,6.029,13.2987,4.60014,2470.32,2021-9-10T04:59:19Z
2021-09-10T03:01:01Z,42.805,6.029,13.2985,4.60011,2470.32,2021-9-10T05:02:22Z
2021-09-10T03:04:05Z,42.805,6.029,13.3011,4.60019,2470.357,2021-9-10T05:05:25Z
2021-09-10T03:07:08Z,42.805,6.029,13.3018,4.60010,2470.357,2021-9-10T05:08:28Z
2021-09-10T03:10:11Z,42.805,6.029,13.3000,4.60033,2470.297,2021-9-10T05:11:31Z
2021-09-10T03:13:14Z,42.805,6.029,13.2990,4.60009,2470.347,2021-9-10T05:14:35Z
2021-09-10T03:16:17Z,42.805,6.029,13.2983,4.60013,2470.343,2021-9-10T05:17:38Z
2021-09-10T03:19:20Z,42.805,6.029,13.2990,4.60003,2470.32,2021-9-10T05:20:41Z
2021-09-10T03:22:23Z,42.805,6.029,13.2988,4.60004,2470.32,2021-9-10T05:23:44Z
2021-09-10T03:25:26Z,42.805,6.029,13.2986,4.60004,2470.357,2021-9-10T05:26:47Z
2021-09-10T03:28:30Z,42.805,6.029,13.2986,4.60013,2470.357,2021-9-10T05:29:50Z
2021-09-10T03:31:33Z,42.805,6.029,13.2990,4.60006,2470.343,2021-9-10T05:32:53Z
2021-09-10T03:34:36Z,42.805,6.029,13.2988,4.60005,2470.343,2021-9-10T05:35:56Z
2021-09-10T03:37:39Z,42.805,6.029,13.2985,4.60004,2470.297,2021-9-10T05:38:59Z
2021-09-10T03:40:42Z,42.805,6.029,13.2991,4.60004,2470.334,2021-9-10T05:42:03Z
2021-09-10T03:43:45Z,42.805,6.029,13.2989,4.60003,2470.32,2021-9-10T05:45:06Z
2021-09-10T03:46:48Z,42.805,6.029,13.2987,4.60003,2470.32,2021-9-10T05:48:09Z
2021-09-10T03:49:51Z,42.805,6.029,13.2991,4.60004,2470.32,2021-9-10T05:51:12Z
2021-09-10T03:52:55Z,42.805,6.029,13.2986,4.60005,2470.343,2021-9-10T05:54:15Z
2021-09-10T03:55:58Z,42.805,6.029,13.2984,4.60007,2470.31,2021-9-10T05:57:18Z
2021-09-10T03:59:01Z,42.805,6.029,13.2989,4.60004,2470.343,2021-9-10T06:00:21Z
2021-09-10T04:02:04Z,42.805,6.029,13.2987,4.60006,2470.357,2021-9-10T06:03:24Z
2021-09-10T04:05:07Z,42.805,6.029,13.2987,4.60003,2470.357,2021-9-10T06:06:28Z
2021-09-10T04:08:10Z,42.805,6.029,13.2983,4.60003,2470.343,2021-9-10T06:09:31Z
2021-09-10T04:11:13Z,42.805,6.029,13.2988,4.60001,2470.366,2021-9-10T06:12:34Z
2021-09-10T04:14:16Z,42.805,6.029,13.2987,4.60003,2470.343,2021-9-10T06:15:37Z
2021-09-10T04:17:19Z,42.805,6.029,13.2991,4.60001,2470.334,2021-9-10T06:18:40Z
2021-09-10T04:20:23Z,42.805,6.029,13.2989,4.60002,2470.343,2021-9-10T06:21:43Z
2021-09-10T04:23:26Z,42.805,6.029,13.2989,4.60003,2470.32,2021-9-10T06:24:46Z
2021-09-10T04:26:29Z,42.805,6.029,13.2985,4.60005,2470.32,2021-9-10T06:27:49Z
2021-09-10T04:29:32Z,42.805,6.029,13.2990,4.60002,2470.32,2021-9-10T06:30:53Z
2021-09-10T04:32:35Z,42.805,6.029,13.2986,4.60002,2470.32,2021-9-10T06:33:56Z
2021-09-10T04:35:38Z,42.805,6.029,13.2988,4.60003,2470.343,2021-9-10T06:36:59Z
2021-09-10T04:38:41Z,42.805,6.029,13.2986,4.60001,2470.343,2021-9-10T06:40:02Z
2021-09-10T04:41:44Z,42.805,6.029,13.2986,4.60001,2470.32,2021-9-10T06:43:05Z
2021-09-10T04:44:48Z,42.805,6.029,13.2987,4.60002,2470.343,2021-9-10T06:46:08Z
2021-09-10T04:47:51Z,42.805,6.029,13.2987,4.60001,2470.31,2021-9-10T06:49:11Z
2021-09-10T04:50:54Z,42.805,6.029,13.2986,4.60002,2470.343,2021-9-10T06:52:14Z
2021-09-10T04:53:57Z,42.805,6.029,13.2984,4.60002,2470.297,2021-9-10T06:55:18Z
2021-09-10T04:57:00Z,42.805,6.029,13.2990,4.60004,2470.357,2021-9-10T06:58:21Z
2021-09-10T05:00:03Z,42.805,6.029,13.2986,4.60001,2470.343,2021-9-10T07:01:24Z
2021-09-10T05:03:06Z,42.805,6.029,13.2992,4.60003,2470.38,2021-9-10T07:04:27Z
2021-09-10T05:06:09Z,42.805,6.029,13.2986,4.60003,2470.32,2021-9-10T07:07:30Z
2021-09-10T05:09:13Z,42.805,6.029,13.2989,4.60002,2470.343,2021-9-10T07:10:33Z
2021-09-10T05:12:16Z,42.805,6.029,13.2991,4.60002,2470.343,2021-9-10T07:13:36Z
2021-09-10T05:15:19Z,42.805,6.029,13.2985,4.60002,2470.343,2021-9-10T07:16:39Z
2021-09-10T05:18:22Z,42.805,6.029,13.2986,4.60002,2470.32,2021-9-10T07:19:43Z
2021-09-10T05:21:25Z,42.805,6.029,13.2990,4.60003,2470.357,2021-9-10T07:22:46Z
2021-09-10T05:24:28Z,42.805,6.029,13.2990,4.60003,2470.343,2021-9-10T07:25:49Z
2021-09-10T05:27:31Z,42.805,6.029,13.2990,4.60001,2470.343,2021-9-10T07:28:52Z
2021-09-10T05:30:34Z,42.805,6.029,13.2986,4.60002,2470.38,2021-9-10T07:31:55Z
2021-09-10T05:33:38Z,42.805,6.029,13.2986,4.60002,2470.38,2021-9-10T07:34:58Z
2021-09-10T05:36:41Z,42.805,6.029,13.2991,4.60003,2470.38,2021-9-10T07:38:01Z
2021-09-10T05:39:44Z,42.805,6.029,13.2989,4.60003,2470.366,2021-9-10T07:41:04Z
2021-09-10T05:42:47Z,42.805,6.029,13.2991,4.60003,2470.38,2021-9-10T07:44:08Z
2021-09-10T05:45:50Z,42.805,6.029,13.2991,4.60004,2470.404,2021-9-10T07:47:11Z
2021-09-10T05:48:53Z,42.805,6.029,13.2990,4.60005,2470.366,2021-9-10T07:50:14Z
2021-09-10T05:51:56Z,42.805,6.029,13.3007,4.60023,2470.366,2021-9-10T07:53:17Z
2021-09-10T05:54:59Z,42.805,6.029,13.3003,4.60032,2470.39,2021-9-10T07:56:20Z
2021-09-10T05:58:03Z,42.805,6.029,13.3004,4.60033,2470.366,2021-9-10T07:59:23Z
2021-09-10T06:01:06Z,42.805,6.029,13.2993,4.60008,2470.427,2021-9-10T08:02:26Z
2021-09-10T06:04:09Z,42.805,6.029,13.2993,4.60008,2470.366,2021-9-10T08:05:29Z
2021-09-10T06:07:12Z,42.805,6.029,13.2996,4.60006,2470.427,2021-9-10T08:08:32Z
2021-09-10T06:10:15Z,42.805,6.029,13.2996,4.60017,2470.366,2021-9-10T08:11:36Z
2021-09-10T06:13:18Z,42.805,6.029,13.3002,4.60027,2470.413,2021-9-10T08:14:39Z
2021-09-10T06:16:21Z,42.805,6.029,13.2996,4.60006,2470.413,2021-9-10T08:17:42Z
2021-09-10T06:19:24Z,42.805,6.029,13.2988,4.60006,2470.413,2021-9-10T08:20:45Z
2021-09-10T06:22:28Z,42.805,6.029,13.2995,4.60026,2470.427,2021-9-10T08:23:48Z
2021-09-10T06:25:31Z,42.805,6.029,13.2990,4.60011,2470.427,2021-9-10T08:26:51Z
2021-09-10T06:28:34Z,42.805,6.029,13.2995,4.60005,2470.376,2021-9-10T08:29:54Z
2021-09-10T06:31:37Z,42.805,6.029,13.2996,4.60007,2470.437,2021-9-10T08:32:57Z
2021-09-10T06:34:40Z,42.805,6.029,13.3014,4.60027,2470.437,2021-9-10T08:36:01Z
2021-09-10T06:37:43Z,42.805,6.029,13.3007,4.60010,2470.474,2021-9-10T08:39:04Z
2021-09-10T06:40:46Z,42.805,6.029,13.3003,4.60022,2470.427,2021-9-10T08:42:07Z
2021-09-10T06:43:49Z,42.805,6.029,13.2995,4.60011,2470.413,2021-9-10T08:45:10Z
2021-09-10T06:46:53Z,42.805,6.029,13.2998,4.60042,2470.474,2021-9-10T08:48:13Z
2021-09-10T06:49:56Z,42.805,6.029,13.3020,4.60038,2470.437,2021-9-10T08:51:16Z
2021-09-10T06:52:59Z,42.805,6.029,13.3021,4.60033,2470.413,2021-9-10T08:54:19Z
2021-09-10T06:56:02Z,42.805,6.029,13.2993,4.60007,2470.437,2021-9-10T08:57:22Z
2021-09-10T06:59:05Z,42.805,6.029,13.3011,4.60024,2470.45,2021-9-10T09:00:26Z
2021-09-10T07:02:08Z,42.805,6.029,13.3023,4.60023,2470.474,2021-9-10T09:03:29Z
2021-09-10T07:05:11Z,42.805,6.029,13.3020,4.60041,2470.497,2021-9-10T09:06:32Z
2021-09-10T07:08:14Z,42.805,6.029,13.3018,4.60027,2470.45,2021-9-10T09:09:35Z
2021-09-10T07:11:18Z,42.805,6.029,13.3001,4.60024,2470.437,2021-9-10T09:12:38Z
2021-09-10T07:14:21Z,42.805,6.029,13.3019,4.60038,2470.46,2021-9-10T09:15:41Z
2021-09-10T07:17:24Z,42.805,6.029,13.3029,4.60019,2470.437,2021-9-10T09:18:44Z
2021-09-10T07:20:27Z,42.805,6.029,13.2996,4.60009,2470.46,2021-9-10T09:21:47Z
2021-09-10T07:23:30Z,42.805,6.029,13.3000,4.60017,2470.46,2021-9-10T09:24:51Z
2021-09-10T07:26:33Z,42.805,6.029,13.3006,4.60022,2470.46,2021-9-10T09:27:54Z
2021-09-10T07:29:36Z,42.805,6.029,13.2996,4.60043,2470.483,2021-9-10T09:30:57Z
2021-09-10T07:32:39Z,42.805,6.029,13.3002,4.60029,2470.483,2021-9-10T09:34:00Z
2021-09-10T07:35:42Z,42.805,6.029,13.3021,4.60028,2470.474,2021-9-10T09:37:03Z
2021-09-10T07:38:46Z,42.805,6.029,13.3010,4.60036,2470.507,2021-9-10T09:40:06Z
2021-09-10T07:41:49Z,42.805,6.029,13.3013,4.60021,2470.483,2021-9-10T09:43:09Z
2021-09-10T07:44:52Z,42.805,6.029,13.3024,4.60017,2470.52,2021-9-10T09:46:12Z
2021-09-10T07:47:55Z,42.805,6.029,13.3010,4.60039,2470.46,2021-9-10T09:49:16Z
2021-09-10T07:50:58Z,42.805,6.029,13.2999,4.60008,2470.544,2021-9-10T09:52:19Z
2021-09-10T07:54:01Z,42.805,6.029,13.3026,4.60031,2470.483,2021-9-10T09:55:22Z
2021-09-10T07:57:04Z,42.805,6.029,13.2989,4.60010,2470.544,2021-9-10T09:58:25Z
2021-09-10T08:00:07Z,42.805,6.029,13.3004,4.60024,2470.507,2021-9-10T10:01:28Z
2021-09-10T08:03:11Z,42.805,6.029,13.3024,4.60026,2470.507,2021-9-10T10:04:31Z
2021-09-10T08:06:14Z,42.805,6.029,13.3024,4.60029,2470.507,2021-9-10T10:07:34Z
2021-09-10T08:09:17Z,42.805,6.029,13.3021,4.60026,2470.53,2021-9-10T10:10:37Z
2021-09-10T08:12:20Z,42.805,6.029,13.3021,4.60024,2470.544,2021-9-10T10:13:41Z
2021-09-10T08:15:23Z,42.805,6.029,13.3000,4.60046,2470.507,2021-9-10T10:16:44Z
2021-09-10T08:18:26Z,42.805,6.029,13.3011,4.60009,2470.553,2021-9-10T10:19:47Z
2021-09-10T08:21:29Z,42.805,6.029,13.2997,4.60011,2470.507,2021-9-10T10:22:50Z
2021-09-10T08:24:32Z,42.805,6.029,13.3002,4.60018,2470.507,2021-9-10T10:25:53Z
2021-09-10T08:27:36Z,42.805,6.029,13.3009,4.60031,2470.507,2021-9-10T10:28:56Z
2021-09-10T08:30:39Z,42.805,6.029,13.3014,4.60026,2470.507,2021-9-10T10:31:59Z
2021-09-10T08:33:42Z,42.805,6.029,13.3007,4.60016,2470.553,2021-9-10T10:35:02Z
2021-09-10T08:36:45Z,42.805,6.029,13.3026,4.60029,2470.53,2021-9-10T10:38:06Z
2021-09-10T08:39:48Z,42.805,6.029,13.3012,4.60023,2470.553,2021-9-10T10:41:09Z
2021-09-10T08:42:51Z,42.805,6.029,13.2993,4.60006,2470.544,2021-9-10T10:44:12Z
2021-09-10T08:45:54Z,42.805,6.029,13.2996,4.60008,2470.544,2021-9-10T10:47:15Z
2021-09-10T08:48:58Z,42.805,6.029,13.3024,4.60008,2470.507,2021-9-10T10:50:18Z
2021-09-10T08:52:01Z,42.805,6.029,13.3000,4.60043,2470.567,2021-9-10T10:53:21Z
2021-09-10T08:55:04Z,42.805,6.029,13.3005,4.60021,2470.553,2021-9-10T10:56:24Z
2021-09-10T08:58:07Z,42.805,6.029,13.3009,4.60031,2470.53,2021-9-10T10:59:27Z
2021-09-10T09:01:10Z,42.805,6.029,13.2993,4.60008,2470.53,2021-9-10T11:02:31Z
2021-09-10T09:04:13Z,42.805,6.029,13.3014,4.60029,2470.591,2021-9-10T11:05:34Z
2021-09-10T09:07:16Z,42.805,6.029,13.3011,4.60029,2470.544,2021-9-10T11:08:37Z
2021-09-10T09:10:19Z,42.805,6.029,13.3002,4.60011,2470.544,2021-9-10T11:11:40Z
2021-09-10T09:13:23Z,42.805,6.029,13.3002,4.60017,2470.507,2021-9-10T11:14:43Z
2021-09-10T09:16:26Z,42.805,6.029,13.2999,4.60009,2470.53,2021-9-10T11:17:46Z
2021-09-10T09:19:29Z,42.805,6.029,13.3021,4.60034,2470.567,2021-9-10T11:20:49Z
2021-09-10T09:22:32Z,42.805,6.029,13.3014,4.60028,2470.52,2021-9-10T11:23:52Z
2021-09-10T09:25:35Z,42.805,6.029,13.3022,4.60044,2470.553,2021-9-10T11:26:56Z
2021-09-10T09:28:38Z,42.805,6.029,13.2996,4.60014,2470.52,2021-9-10T11:29:59Z
2021-09-10T09:31:41Z,42.805,6.029,13.2999,4.60031,2470.483,2021-9-10T11:33:02Z
2021-09-10T09:34:44Z,42.805,6.029,13.3016,4.60033,2470.553,2021-9-10T11:36:05Z
2021-09-10T09:37:48Z,42.805,6.029,13.3013,4.60031,2470.544,2021-9-10T11:39:08Z
2021-09-10T09:40:51Z,42.805,6.029,13.3015,4.60027,2470.53,2021-9-10T11:42:11Z
2021-09-10T09:43:54Z,42.805,6.029,13.3003,4.60011,2470.507,2021-9-10T11:45:14Z
2021-09-10T09:46:57Z,42.805,6.029,13.2993,4.60008,2470.544,2021-9-10T11:48:18Z
2021-09-10T09:50:00Z,42.805,6.029,13.3000,4.60005,2470.567,2021-9-10T11:51:21Z
2021-09-10T09:53:03Z,42.805,6.029,13.2992,4.60018,2470.53,2021-9-10T11:54:24Z
2021-09-10T09:56:06Z,42.805,6.029,13.3000,4.60009,2470.53,2021-9-10T11:57:27Z
2021-09-10T09:59:09Z,42.805,6.029,13.2991,4.60009,2470.52,2021-9-10T12:00:30Z
2021-09-10T10:02:13Z,42.805,6.029,13.2996,4.60006,2470.507,2021-9-10T12:03:33Z
2021-09-10T10:05:16Z,42.805,6.029,13.2991,4.60006,2470.483,2021-9-10T12:06:36Z
2021-09-10T10:08:19Z,42.805,6.029,13.2998,4.60014,2470.52,2021-9-10T12:09:39Z
2021-09-10T10:11:22Z,42.805,6.029,13.2998,4.60014,2470.507,2021-9-10T12:12:43Z
2021-09-10T10:14:25Z,42.805,6.029,13.2993,4.60011,2470.507,2021-9-10T12:15:46Z
2021-09-10T10:17:28Z,42.805,6.029,13.3014,4.60019,2470.544,2021-9-10T12:18:49Z
2021-09-10T10:20:31Z,42.805,6.029,13.3011,4.60044,2470.52,2021-9-10T12:21:52Z
2021-09-10T10:23:34Z,42.805,6.029,13.3018,4.60021,2470.497,2021-9-10T12:24:55Z
2021-09-10T10:26:38Z,42.805,6.029,13.3019,4.60024,2470.437,2021-9-10T12:27:58Z
2021-09-10T10:29:41Z,42.805,6.029,13.3007,4.60035,2470.497,2021-9-10T12:31:01Z
2021-09-10T10:32:44Z,42.805,6.029,13.3011,4.60039,2470.497,2021-9-10T12:34:04Z
2021-09-10T10:35:47Z,42.805,6.029,13.3014,4.60031,2470.507,2021-9-10T12:37:08Z
2021-09-10T10:38:50Z,42.805,6.029,13.3012,4.60031,2470.483,2021-9-10T12:40:11Z
2021-09-10T10:41:53Z,42.805,6.029,13.2999,4.60020,2470.52,2021-9-10T12:43:14Z
2021-09-10T10:44:56Z,42.805,6.029,13.2996,4.60014,2470.497,2021-9-10T12:46:17Z
2021-09-10T10:47:59Z,42.805,6.029,13.3013,4.60042,2470.52,2021-9-10T12:49:20Z
2021-09-10T10:51:03Z,42.805,6.029,13.3017,4.60022,2470.483,2021-9-10T12:52:23Z
2021-09-10T10:54:06Z,42.805,6.029,13.3018,4.60029,2470.507,2021-9-10T12:55:26Z
2021-09-10T10:57:09Z,42.805,6.029,13.3009,4.60044,2470.507,2021-9-10T12:58:29Z
2021-09-10T11:00:12Z,42.805,6.029,13.3019,4.60049,2470.53,2021-9-10T13:01:33Z
2021-09-10T11:03:15Z,42.805,6.029,13.3008,4.60031,2470.497,2021-9-10T13:04:36Z
2021-09-10T11:06:18Z,42.805,6.029,13.3016,4.60061,2470.507,2021-9-10T13:07:39Z
2021-09-10T11:09:21Z,42.805,6.029,13.3006,4.60044,2470.507,2021-9-10T13:10:42Z
2021-09-10T11:12:24Z,42.805,6.029,13.3006,4.60056,2470.52,2021-9-10T13:13:45Z
2021-09-10T11:15:28Z,42.805,6.029,13.3019,4.60047,2470.474,2021-9-10T13:16:48Z
2021-09-10T11:18:31Z,42.805,6.029,13.3007,4.60057,2470.483,2021-9-10T13:19:51Z
2021-09-10T11:21:34Z,42.805,6.029,13.3003,4.60040,2470.483,2021-9-10T13:22:54Z
2021-09-10T11:24:37Z,42.805,6.029,13.3011,4.60044,2470.483,2021-9-10T13:25:58Z
2021-09-10T11:27:40Z,42.805,6.029,13.3006,4.60049,2470.497,2021-9-10T13:29:01Z
2021-09-10T11:30:43Z,42.805,6.029,13.3004,4.60049,2470.483,2021-9-10T13:32:04Z
2021-09-10T11:33:46Z,42.805,6.029,13.2997,4.60046,2470.46,2021-9-10T13:35:07Z
2021-09-10T11:36:50Z,42.805,6.029,13.3005,4.60042,2470.52,2021-9-10T13:38:10Z
2021-09-10T11:39:53Z,42.805,6.029,13.3003,4.60039,2470.46,2021-9-10T13:41:13Z
2021-09-10T11:42:56Z,42.805,6.029,13.3004,4.60049,2470.483,2021-9-10T13:44:16Z
2021-09-10T11:45:59Z,42.805,6.029,13.2996,4.60033,2470.474,2021-9-10T13:47:20Z
2021-09-10T11:49:02Z,42.805,6.029,13.3008,4.60072,2470.46,2021-9-10T13:50:23Z
2021-09-10T11:52:05Z,42.805,6.029,13.3004,4.60064,2470.46,2021-9-10T13:53:26Z
2021-09-10T11:55:08Z,42.805,6.029,13.3011,4.60057,2470.474,2021-9-10T13:56:29Z
2021-09-10T11:58:11Z,42.805,6.029,13.2997,4.60046,2470.474,2021-9-10T13:59:32Z
2021-09-10T12:01:15Z,42.805,6.029,13.3007,4.60046,2470.483,2021-9-10T14:02:35Z
2021-09-10T12:04:18Z,42.805,6.029,13.2999,4.60035,2470.46,2021-9-10T14:05:38Z
2021-09-10T12:07:21Z,42.805,6.029,13.2991,4.60045,2470.45,2021-9-10T14:08:41Z
2021-09-10T12:10:24Z,42.805,6.029,13.3000,4.60059,2470.46,2021-9-10T14:11:45Z
2021-09-10T12:13:27Z,42.805,6.029,13.3006,4.60039,2470.45,2021-9-10T14:14:48Z
2021-09-10T12:16:30Z,42.805,6.029,13.2999,4.60049,2470.413,2021-9-10T14:17:51Z
2021-09-10T12:19:33Z,42.805,6.029,13.3006,4.60053,2470.45,2021-9-10T14:20:54Z
2021-09-10T12:22:36Z,42.805,6.029,13.3001,4.60073,2470.474,2021-9-10T14:23:57Z
2021-09-10T12:25:40Z,42.805,6.029,13.3000,4.60057,2470.45,2021-9-10T14:27:00Z
2021-09-10T12:28:43Z,42.805,6.029,13.3006,4.60060,2470.437,2021-9-10T14:30:03Z
2021-09-10T12:31:46Z,42.805,6.029,13.3005,4.60051,2470.437,2021-9-10T14:33:06Z
2021-09-10T12:34:49Z,42.805,6.029,13.3001,4.60033,2470.437,2021-9-10T14:36:10Z
2021-09-10T12:37:52Z,42.805,6.029,13.3004,4.60031,2470.437,2021-9-10T14:39:13Z
2021-09-10T12:40:55Z,42.805,6.029,13.2998,4.60020,2470.437,2021-9-10T14:42:16Z
2021-09-10T12:43:58Z,42.805,6.029,13.3008,4.60052,2470.413,2021-9-10T14:45:19Z
2021-09-10T12:47:01Z,42.805,6.029,13.3009,4.60064,2470.45,2021-9-10T14:48:22Z
2021-09-10T12:50:05Z,42.805,6.029,13.3006,4.60044,2470.437,2021-9-10T14:51:25Z
2021-09-10T12:53:08Z,42.805,6.029,13.3004,4.60046,2470.39,2021-9-10T14:54:28Z
2021-09-10T12:56:11Z,42.805,6.029,13.2998,4.60054,2470.39,2021-9-10T14:57:31Z
2021-09-10T12:59:14Z,42.805,6.029,13.3011,4.60054,2470.413,2021-9-10T15:00:35Z
2021-09-10T13:02:17Z,42.805,6.029,13.3009,4.60058,2470.427,2021-9-10T15:03:38Z
2021-09-10T13:05:20Z,42.805,6.029,13.3014,4.60052,2470.413,2021-9-10T15:06:41Z
2021-09-10T13:08:23Z,42.805,6.029,13.2998,4.60039,2470.427,2021-9-10T15:09:44Z
2021-09-10T13:11:26Z,42.805,6.029,13.3004,4.60046,2470.39,2021-9-10T15:12:47Z
2021-09-10T13:14:30Z,42.805,6.029,13.3008,4.60055,2470.413,2021-9-10T15:15:50Z
2021-09-10T13:17:33Z,42.805,6.029,13.3002,4.60062,2470.413,2021-9-10T15:18:53Z
2021-09-10T13:20:36Z,42.805,6.029,13.2999,4.60053,2470.39,2021-9-10T15:21:57Z
2021-09-10T13:23:39Z,42.805,6.029,13.3012,4.60066,2470.404,2021-9-10T15:25:00Z
2021-09-10T13:26:42Z,42.805,6.029,13.2999,4.60059,2470.404,2021-9-10T15:28:03Z
2021-09-10T13:29:45Z,42.805,6.029,13.3010,4.60068,2470.404,2021-9-10T15:31:06Z
2021-09-10T13:32:48Z,42.805,6.029,13.3000,4.60050,2470.39,2021-9-10T15:34:09Z
2021-09-10T13:35:52Z,42.805,6.029,13.3003,4.60055,2470.39,2021-9-10T15:37:12Z
2021-09-10T13:38:55Z,42.805,6.029,13.3000,4.60049,2470.38,2021-9-10T15:40:15Z
2021-09-10T13:41:58Z,42.805,6.029,13.3004,4.60050,2470.38,2021-9-10T15:43:18Z
2021-09-10T13:45:01Z,42.805,6.029,13.3001,4.60044,2470.366,2021-9-10T15:46:22Z
2021-09-10T13:48:04Z,42.805,6.029,13.3017,4.60064,2470.366,2021-9-10T15:49:25Z
2021-09-10T13:51:07Z,42.805,6.029,13.3004,4.60065,2470.357,2021-9-10T15:52:28Z
2021-09-10T13:54:10Z,42.805,6.029,13.3002,4.60043,2470.39,2021-9-10T15:55:31Z
2021-09-10T13:57:13Z,42.805,6.029,13.3001,4.60050,2470.404,2021-9-10T15:58:34Z
2021-09-10T14:00:17Z,42.805,6.029,13.2998,4.60050,2470.39,2021-9-10T16:01:37Z
2021-09-10T14:03:20Z,42.805,6.029,13.3005,4.60047,2470.39,2021-9-10T16:04:40Z
2021-09-10T14:06:23Z,42.805,6.029,13.3002,4.60064,2470.366,2021-9-10T16:07:43Z
2021-09-10T14:09:26Z,42.805,6.029,13.3002,4.60042,2470.39,2021-9-10T16:10:47Z
2021-09-10T14:12:29Z,42.805,6.029,13.3001,4.60054,2470.38,2021-9-10T16:13:50Z
2021-09-10T14:15:32Z,42.805,6.029,13.3010,4.60055,2470.38,2021-9-10T16:16:53Z
2021-09-10T14:18:35Z,42.805,6.029,13.3003,4.60051,2470.39,2021-9-10T16:19:56Z
2021-09-10T14:21:38Z,42.805,6.029,13.3008,4.60057,2470.357,2021-9-10T16:22:59Z
2021-09-10T14:24:42Z,42.805,6.029,13.3014,4.60049,2470.343,2021-9-10T16:26:02Z
2021-09-10T14:27:45Z,42.805,6.029,13.2997,4.60047,2470.357,2021-9-10T16:29:05Z
2021-09-10T14:30:48Z,42.805,6.029,13.3000,4.60049,2470.366,2021-9-10T16:32:08Z
2021-09-10T14:33:51Z,42.805,6.029,13.3003,4.60045,2470.366,2021-9-10T16:35:12Z
2021-09-10T14:36:54Z,42.805,6.029,13.3002,4.60059,2470.366,2021-9-10T16:38:15Z
2021-09-10T14:39:57Z,42.805,6.029,13.3000,4.60053,2470.353,2021-9-10T16:41:18Z
2021-09-10T14:43:00Z,42.805,6.029,13.3007,4.60052,2470.357,2021-9-10T16:44:21Z
2021-09-10T14:46:03Z,42.805,6.029,13.3009,4.60062,2470.357,2021-9-10T16:47:24Z
2021-09-10T14:49:07Z,42.805,6.029,13.3000,4.60057,2470.343,2021-9-10T16:50:27Z
2021-09-10T14:52:10Z,42.805,6.029,13.3001,4.60049,2470.343,2021-9-10T16:53:30Z
2021-09-10T14:55:13Z,42.805,6.029,13.2999,4.60049,2470.366,2021-9-10T16:56:33Z
2021-09-10T14:58:16Z,42.805,6.029,13.3004,4.60055,2470.38,2021-9-10T16:59:37Z
2021-09-10T15:01:19Z,42.805,6.029,13.3006,4.60064,2470.366,2021-9-10T17:02:40Z
2021-09-10T15:04:22Z,42.805,6.029,13.3003,4.60039,2470.38,2021-9-10T17:05:43Z
2021-09-10T15:07:25Z,42.805,6.029,13.3006,4.60036,2470.343,2021-9-10T17:08:46Z
2021-09-10T15:10:28Z,42.805,6.029,13.3004,4.60049,2470.38,2021-9-10T17:11:49Z
2021-09-10T15:13:32Z,42.805,6.029,13.2998,4.60026,2470.32,2021-9-10T17:14:52Z